| time (UTC) | temp C | wind direction | speed KPH | gust KPH | rain 1hr cm | rain 24hr cm | rain mn cm | humidity % | barometer mb |
| 20260504100510 | 2 | 8 | 0.0 | 0.0 | 0.00 | 0.00 | 0.00 | 91 | 1019.6 |
| 20260504081903 | 2 | 32 | 0.0 | 0.0 | 0.00 | 0.00 | 0.00 | 89 | 1019.8 |
| 20260504081400 | 2 | 32 | 0.0 | 0.0 | 0.00 | 0.00 | 0.00 | 88 | 1019.9 |
| 20260504080856 | 2 | 30 | 0.0 | 0.0 | 0.00 | 0.00 | 0.00 | 88 | 1019.8 |
| 20260504080353 | 2 | 27 | 0.0 | 0.0 | 0.00 | 0.00 | 0.00 | 88 | 1020.0 |
| 20260504070320 | 2 | 340 | 0.0 | 0.0 | 0.00 | 0.00 | 0.00 | 89 | 1020.4 |
| 20260504060241 | 1 | 287 | 0.0 | 0.0 | 0.00 | 0.00 | 0.00 | 86 | 1020.4 |
| 20260504050709 | 2 | 280 | 0.0 | 0.0 | 0.00 | 0.00 | 0.00 | 83 | 1020.9 |
| 20260504050206 | 2 | 280 | 0.0 | 0.0 | 0.00 | 0.00 | 0.00 | 83 | 1020.6 |
| 20260504045703 | 2 | 280 | 0.0 | 0.0 | 0.00 | 0.00 | 0.00 | 82 | 1021.0 |
| 20260504045203 | 2 | 280 | 0.0 | 0.0 | 0.00 | 0.00 | 0.00 | 82 | 1020.5 |
| 20260504044702 | 2 | 280 | 0.0 | 0.0 | 0.00 | 0.00 | 0.00 | 82 | 1020.5 |
| 20260504044158 | 2 | 280 | 0.0 | 0.0 | 0.00 | 0.00 | 0.00 | 81 | 1020.6 |
| 20260504043655 | 2 | 280 | 0.0 | 0.0 | 0.00 | 0.00 | 0.00 | 81 | 1020.8 |
| 20260504043152 | 2 | 280 | 0.0 | 0.0 | 0.00 | 0.00 | 0.00 | 80 | 1020.4 |
| 20260504042649 | 3 | 279 | 0.0 | 0.0 | 0.00 | 0.00 | 0.00 | 80 | 1020.5 |
| 20260504042146 | 3 | 269 | 0.0 | 0.0 | 0.00 | 0.00 | 0.00 | 79 | 1020.6 |
| 20260504041642 | 3 | 269 | 0.0 | 0.0 | 0.00 | 0.00 | 0.00 | 79 | 1020.3 |
| 20260504041138 | 3 | 281 | 0.0 | 0.0 | 0.00 | 0.00 | 0.00 | 79 | 1020.4 |
| 20260504040635 | 3 | 281 | 0.0 | 0.0 | 0.00 | 0.00 | 0.00 | 78 | 1020.4 |
| 20260504040132 | 3 | 280 | 0.0 | 0.0 | 0.00 | 0.00 | 0.00 | 78 | 1020.4 |
| 20260504035629 | 3 | 290 | 0.0 | 0.0 | 0.00 | 0.00 | 0.00 | 78 | 1020.3 |
| 20260504035125 | 3 | 286 | 0.0 | 0.0 | 0.00 | 0.00 | 0.00 | 77 | 1020.4 |
| 20260504034623 | 3 | 286 | 0.0 | 0.0 | 0.00 | 0.00 | 0.00 | 76 | 1020.4 |
| 20260504034120 | 3 | 286 | 0.0 | 0.0 | 0.00 | 0.00 | 0.00 | 75 | 1020.3 |
| 20260504033618 | 3 | 272 | 0.0 | 0.0 | 0.00 | 0.00 | 0.00 | 75 | 1020.3 |
| 20260504033115 | 4 | 273 | 0.0 | 0.0 | 0.00 | 0.00 | 0.00 | 74 | 1020.3 |
| 20260504032611 | 4 | 273 | 0.0 | 0.0 | 0.00 | 0.00 | 0.00 | 74 | 1020.1 |
| 20260504032109 | 4 | 240 | 0.0 | 0.0 | 0.00 | 0.00 | 0.00 | 73 | 1020.2 |
| 20260504031606 | 4 | 250 | 0.0 | 1.6 | 0.00 | 0.00 | 0.00 | 73 | 1020.1 |
| 20260504031101 | 4 | 241 | 0.0 | 0.0 | 0.00 | 0.00 | 0.00 | 73 | 1020.2 |
| 20260504030559 | 4 | 224 | 1.6 | 1.6 | 0.00 | 0.00 | 0.00 | 73 | 1020.1 |
| 20260504030055 | 5 | 257 | 0.0 | 0.0 | 0.00 | 0.00 | 0.00 | 72 | 1020.2 |
| 20260504025553 | 5 | 253 | 0.0 | 0.0 | 0.00 | 0.00 | 0.00 | 72 | 1020.4 |
| 20260504025049 | 5 | 237 | 0.0 | 0.0 | 0.00 | 0.00 | 0.00 | 72 | 1020.6 |
| 20260504024546 | 4 | 242 | 1.6 | 1.6 | 0.00 | 0.00 | 0.00 | 73 | 1020.4 |
| 20260504024043 | 4 | 239 | 0.0 | 0.0 | 0.00 | 0.00 | 0.00 | 72 | 1020.3 |
| 20260504023540 | 5 | 239 | 0.0 | 0.0 | 0.00 | 0.00 | 0.00 | 72 | 1020.4 |
| 20260504023036 | 5 | 234 | 0.0 | 0.0 | 0.00 | 0.00 | 0.00 | 71 | 1020.6 |
| 20260504022532 | 5 | 236 | 0.0 | 0.0 | 0.00 | 0.00 | 0.00 | 70 | 1020.4 |
| 20260504022028 | 5 | 240 | 0.0 | 0.0 | 0.00 | 0.00 | 0.00 | 69 | 1020.5 |
| 20260504021526 | 5 | 226 | 0.0 | 0.0 | 0.00 | 0.00 | 0.00 | 68 | 1020.3 |
| 20260504021023 | 5 | 186 | 0.0 | 1.6 | 0.00 | 0.00 | 0.00 | 67 | 1020.3 |
| 20260504020520 | 5 | 223 | 0.0 | 0.0 | 0.00 | 0.00 | 0.00 | 66 | 1020.1 |
| 20260504020016 | 5 | 229 | 0.0 | 0.0 | 0.00 | 0.00 | 0.00 | 65 | 1020.1 |
| 20260504015513 | 5 | 252 | 0.0 | 3.2 | 0.00 | 0.00 | 0.00 | 66 | 1020.1 |
| 20260504015008 | 6 | 225 | 0.0 | 0.0 | 0.00 | 0.00 | 0.00 | 65 | 1020.1 |
| 20260504014505 | 6 | 225 | 0.0 | 0.0 | 0.00 | 0.00 | 0.00 | 65 | 1020.1 |
| 20260504014002 | 6 | 225 | 0.0 | 1.6 | 0.00 | 0.00 | 0.00 | 64 | 1020.1 |
| 20260504013500 | 6 | 274 | 0.0 | 0.0 | 0.00 | 0.00 | 0.00 | 61 | 1019.9 |
| 20260504012955 | 7 | 156 | 0.0 | 0.0 | 0.00 | 0.00 | 0.00 | 58 | 1019.9 |
| 20260504012454 | 7 | 156 | 0.0 | 0.0 | 0.00 | 0.00 | 0.00 | 58 | 1019.9 |
| 20260504011952 | 6 | 253 | 0.0 | 1.6 | 0.00 | 0.00 | 0.00 | 56 | 1019.8 |
| 20260504011447 | 6 | 239 | 1.6 | 1.6 | 0.00 | 0.00 | 0.00 | 58 | 1019.5 |
| 20260504010944 | 7 | 250 | 0.0 | 0.0 | 0.00 | 0.00 | 0.00 | 57 | 1019.4 |
| 20260504010440 | 7 | 168 | 0.0 | 0.0 | 0.00 | 0.00 | 0.00 | 55 | 1019.5 |
| 20260504005936 | 7 | 274 | 0.0 | 0.0 | 0.00 | 0.00 | 0.00 | 55 | 1019.4 |
| 20260504005433 | 7 | 168 | 0.0 | 1.6 | 0.00 | 0.00 | 0.00 | 54 | 1019.6 |
| 20260504004930 | 7 | 235 | 0.0 | 0.0 | 0.00 | 0.00 | 0.00 | 50 | 1019.7 |
| 20260504004428 | 8 | 241 | 0.0 | 0.0 | 0.00 | 0.00 | 0.00 | 50 | 1019.5 |
| 20260504003925 | 8 | 187 | 0.0 | 1.6 | 0.00 | 0.00 | 0.00 | 51 | 1019.3 |
| 20260504003421 | 8 | 241 | 0.0 | 1.6 | 0.00 | 0.00 | 0.00 | 52 | 1018.9 |
| 20260504002918 | 8 | 271 | 0.0 | 0.0 | 0.00 | 0.00 | 0.00 | 49 | 1019.3 |
| 20260504002415 | 9 | 257 | 0.0 | 1.6 | 0.00 | 0.00 | 0.00 | 50 | 1019.1 |
| 20260504001912 | 9 | 241 | 0.0 | 0.0 | 0.00 | 0.00 | 0.00 | 48 | 1019.0 |
| 20260504001410 | 10 | 245 | 0.0 | 1.6 | 0.00 | 0.00 | 0.00 | 47 | 1019.0 |
| 20260504000906 | 10 | 242 | 0.0 | 1.6 | 0.00 | 0.00 | 0.00 | 45 | 1019.0 |
| 20260504000403 | 10 | 245 | 0.0 | 0.0 | 0.00 | 0.00 | 0.00 | 42 | 1019.0 |
| 20260503235901 | 11 | 239 | 0.0 | 0.0 | 0.00 | 0.00 | 0.00 | 41 | 1018.9 |
| 20260503235359 | 11 | 271 | 0.0 | 0.0 | 0.00 | 0.00 | 0.00 | 39 | 1019.0 |
| 20260503234855 | 12 | 268 | 0.0 | 0.0 | 0.00 | 0.00 | 0.00 | 35 | 1019.1 |
| 20260503234353 | 12 | 268 | 0.0 | 3.2 | 0.00 | 0.00 | 0.00 | 34 | 1019.0 |
| 20260503233851 | 12 | 249 | 1.6 | 3.2 | 0.00 | 0.00 | 0.00 | 33 | 1019.0 |
| 20260503233347 | 13 | 261 | 1.6 | 3.2 | 0.00 | 0.00 | 0.00 | 31 | 1019.0 |
| 20260503232843 | 13 | 280 | 0.0 | 1.6 | 0.00 | 0.00 | 0.00 | 32 | 1019.3 |
| 20260503232340 | 14 | 264 | 1.6 | 4.8 | 0.00 | 0.00 | 0.00 | 28 | 1019.0 |
| 20260503231839 | 14 | 253 | 0.0 | 3.2 | 0.00 | 0.00 | 0.00 | 28 | 1019.0 |
| 20260503231335 | 15 | 251 | 3.2 | 9.7 | 0.00 | 0.00 | 0.00 | 27 | 1019.3 |
| 20260503230831 | 15 | 253 | 3.2 | 11.3 | 0.00 | 0.00 | 0.00 | 27 | 1019.5 |
| 20260503230329 | 15 | 242 | 3.2 | 9.7 | 0.00 | 0.00 | 0.00 | 26 | 1019.4 |
| 20260503225826 | 15 | 109 | 1.6 | 1.6 | 0.00 | 0.00 | 0.00 | 27 | 1019.3 |
| 20260503225322 | 15 | 254 | 4.8 | 6.4 | 0.00 | 0.00 | 0.00 | 26 | 1019.3 |
| 20260503224818 | 14 | 250 | 4.8 | 6.4 | 0.00 | 0.00 | 0.00 | 27 | 1019.6 |
| 20260503224316 | 14 | 169 | 3.2 | 6.4 | 0.00 | 0.00 | 0.00 | 26 | 1019.4 |
| 20260503223814 | 15 | 271 | 4.8 | 6.4 | 0.00 | 0.00 | 0.00 | 27 | 1019.4 |
| 20260503223311 | 15 | 311 | 3.2 | 6.4 | 0.00 | 0.00 | 0.00 | 26 | 1019.5 |
| 20260503222806 | 16 | 276 | 6.4 | 9.7 | 0.00 | 0.00 | 0.00 | 25 | 1019.3 |
| 20260503222305 | 16 | 76 | 0.0 | 3.2 | 0.00 | 0.00 | 0.00 | 26 | 1019.4 |
| 20260503221803 | 15 | 212 | 3.2 | 9.7 | 0.00 | 0.00 | 0.00 | 27 | 1019.5 |
| 20260503221301 | 15 | 244 | 3.2 | 4.8 | 0.00 | 0.00 | 0.00 | 27 | 1019.4 |
| 20260503220757 | 15 | 248 | 9.7 | 14.5 | 0.00 | 0.00 | 0.00 | 28 | 1019.4 |
| 20260503220254 | 14 | 257 | 3.2 | 14.5 | 0.00 | 0.00 | 0.00 | 29 | 1019.5 |
| 20260503215750 | 15 | 242 | 8.0 | 14.5 | 0.00 | 0.00 | 0.00 | 28 | 1019.4 |
| 20260503215248 | 15 | 262 | 3.2 | 6.4 | 0.00 | 0.00 | 0.00 | 29 | 1019.4 |
| 20260503214746 | 15 | 242 | 6.4 | 9.7 | 0.00 | 0.00 | 0.00 | 27 | 1019.4 |
| 20260503214242 | 15 | 226 | 6.4 | 17.7 | 0.00 | 0.00 | 0.00 | 27 | 1019.6 |
| 20260503213740 | 15 | 278 | 4.8 | 4.8 | 0.00 | 0.00 | 0.00 | 27 | 1019.6 |
| 20260503213237 | 15 | 79 | 0.0 | 9.7 | 0.00 | 0.00 | 0.00 | 26 | 1019.7 |
| 20260503212734 | 15 | 238 | 11.3 | 14.5 | 0.00 | 0.00 | 0.00 | 26 | 1019.8 |
| 20260503212232 | 15 | 252 | 9.7 | 16.1 | 0.00 | 0.00 | 0.00 | 27 | 1019.8 |
| 20260503211729 | 15 | 231 | 8.0 | 12.9 | 0.00 | 0.00 | 0.00 | 26 | 1020.0 |
| 20260503211225 | 15 | 211 | 6.4 | 12.9 | 0.00 | 0.00 | 0.00 | 25 | 1020.0 |
| 20260503210721 | 15 | 35 | 3.2 | 9.7 | 0.00 | 0.00 | 0.00 | 27 | 1019.8 |
| 20260503210219 | 14 | 191 | 4.8 | 6.4 | 0.00 | 0.00 | 0.00 | 26 | 1019.8 |
| 20260503205714 | 14 | 279 | 6.4 | 12.9 | 0.00 | 0.00 | 0.00 | 25 | 1019.8 |
| 20260503205210 | 15 | 262 | 4.8 | 4.8 | 0.00 | 0.00 | 0.00 | 25 | 1020.1 |
| 20260503204706 | 15 | 276 | 6.4 | 9.7 | 0.00 | 0.00 | 0.00 | 27 | 1019.9 |
| 20260503204205 | 15 | 259 | 6.4 | 11.3 | 0.00 | 0.00 | 0.00 | 26 | 1019.9 |
| 20260503203701 | 14 | 251 | 4.8 | 17.7 | 0.00 | 0.00 | 0.00 | 26 | 1020.3 |
| 20260503203159 | 14 | 244 | 4.8 | 14.5 | 0.00 | 0.00 | 0.00 | 28 | 1020.3 |
| 20260503202655 | 15 | 278 | 3.2 | 4.8 | 0.00 | 0.00 | 0.00 | 27 | 1020.2 |
| 20260503202154 | 15 | 353 | 1.6 | 11.3 | 0.00 | 0.00 | 0.00 | 27 | 1020.5 |
| 20260503201652 | 14 | 248 | 4.8 | 6.4 | 0.00 | 0.00 | 0.00 | 28 | 1020.4 |
| 20260503201149 | 15 | 273 | 3.2 | 4.8 | 0.00 | 0.00 | 0.00 | 27 | 1020.4 |
| 20260503200645 | 15 | 239 | 9.7 | 12.9 | 0.00 | 0.00 | 0.00 | 27 | 1020.6 |
| 20260503200141 | 15 | 248 | 8.0 | 11.3 | 0.00 | 0.00 | 0.00 | 29 | 1020.5 |
| 20260503195638 | 14 | 150 | 0.0 | 6.4 | 0.00 | 0.00 | 0.00 | 28 | 1020.5 |
| 20260503195135 | 14 | 210 | 6.4 | 9.7 | 0.00 | 0.00 | 0.00 | 29 | 1021.0 |
| 20260503194632 | 14 | 269 | 14.5 | 20.9 | 0.00 | 0.00 | 0.00 | 29 | 1021.0 |
| 20260503194127 | 14 | 238 | 1.6 | 6.4 | 0.00 | 0.00 | 0.00 | 29 | 1021.0 |
| 20260503193625 | 13 | 238 | 6.4 | 9.7 | 0.00 | 0.00 | 0.00 | 30 | 1021.0 |
| 20260503193120 | 13 | 240 | 6.4 | 16.1 | 0.00 | 0.00 | 0.00 | 28 | 1021.0 |
| 20260503192616 | 13 | 274 | 4.8 | 9.7 | 0.00 | 0.00 | 0.00 | 27 | 1021.2 |
| 20260503192112 | 14 | 214 | 3.2 | 12.9 | 0.00 | 0.00 | 0.00 | 27 | 1021.3 |
| 20260503191609 | 14 | 144 | 1.6 | 11.3 | 0.00 | 0.00 | 0.00 | 28 | 1021.3 |
| 20260503191106 | 14 | 270 | 3.2 | 4.8 | 0.00 | 0.00 | 0.00 | 30 | 1021.5 |
| 20260503190603 | 13 | 256 | 4.8 | 11.3 | 0.00 | 0.00 | 0.00 | 30 | 1021.5 |
| 20260503190100 | 13 | 273 | 9.7 | 16.1 | 0.00 | 0.00 | 0.00 | 30 | 1021.6 |
| 20260503185556 | 13 | 248 | 11.3 | 12.9 | 0.00 | 0.00 | 0.00 | 30 | 1021.8 |
| 20260503185056 | 13 | 277 | 3.2 | 11.3 | 0.00 | 0.00 | 0.00 | 30 | 1021.8 |
| 20260503184552 | 13 | 254 | 8.0 | 16.1 | 0.00 | 0.00 | 0.00 | 30 | 1021.8 |
| 20260503184049 | 13 | 292 | 1.6 | 9.7 | 0.00 | 0.00 | 0.00 | 30 | 1021.8 |
| 20260503183545 | 13 | 25 | 0.0 | 3.2 | 0.00 | 0.00 | 0.00 | 30 | 1021.6 |
| 20260503183043 | 13 | 246 | 11.3 | 12.9 | 0.00 | 0.00 | 0.00 | 29 | 1021.9 |
| 20260503182541 | 13 | 194 | 3.2 | 6.4 | 0.00 | 0.00 | 0.00 | 30 | 1021.9 |
| 20260503182039 | 13 | 318 | 3.2 | 6.4 | 0.00 | 0.00 | 0.00 | 31 | 1021.7 |
| 20260503181535 | 13 | 186 | 1.6 | 4.8 | 0.00 | 0.00 | 0.00 | 31 | 1021.9 |
| 20260503181032 | 13 | 263 | 11.3 | 14.5 | 0.00 | 0.00 | 0.00 | 30 | 1022.0 |
| 20260503180529 | 13 | 57 | 0.0 | 4.8 | 0.00 | 0.00 | 0.00 | 33 | 1022.0 |
| 20260503180026 | 12 | 114 | 1.6 | 3.2 | 0.00 | 0.00 | 0.00 | 36 | 1022.4 |
| 20260503175524 | 13 | 257 | 3.2 | 9.7 | 0.00 | 0.00 | 0.00 | 30 | 1022.2 |
| 20260503175020 | 12 | 304 | 1.6 | 4.8 | 0.00 | 0.00 | 0.00 | 34 | 1022.3 |
| 20260503174518 | 12 | 251 | 4.8 | 6.4 | 0.00 | 0.00 | 0.00 | 34 | 1022.3 |
| 20260503174014 | 12 | 281 | 8.0 | 12.9 | 0.00 | 0.00 | 0.00 | 32 | 1022.4 |
| 20260503173509 | 12 | 274 | 6.4 | 14.5 | 0.00 | 0.00 | 0.00 | 33 | 1022.5 |
| 20260503173006 | 11 | 96 | 3.2 | 4.8 | 0.00 | 0.00 | 0.00 | 36 | 1022.5 |
| 20260503172504 | 11 | 84 | 1.6 | 6.4 | 0.00 | 0.00 | 0.00 | 33 | 1022.5 |
| 20260503172001 | 11 | 247 | 1.6 | 9.7 | 0.00 | 0.00 | 0.00 | 33 | 1022.6 |
| 20260503171457 | 11 | 249 | 4.8 | 14.5 | 0.00 | 0.00 | 0.00 | 31 | 1022.7 |
| 20260503170954 | 11 | 249 | 6.4 | 16.1 | 0.00 | 0.00 | 0.00 | 33 | 1022.7 |
| 20260503170450 | 11 | 16 | 1.6 | 1.6 | 0.00 | 0.00 | 0.00 | 36 | 1022.7 |
| 20260503150843 | 9 | 241 | 6.4 | 9.7 | 0.00 | 0.00 | 0.00 | 37 | 1023.6 |
| 20260503150339 | 8 | 266 | 4.8 | 9.7 | 0.00 | 0.00 | 0.00 | 37 | 1023.7 |
| 20260503140303 | 7 | 277 | 8.0 | 12.9 | 0.00 | 0.00 | 0.00 | 42 | 1023.9 |
| 20260503131232 | 7 | 259 | 6.4 | 11.3 | 0.00 | 0.00 | 0.00 | 48 | 1023.6 |
| 20260503130730 | 7 | 252 | 6.4 | 9.7 | 0.00 | 0.00 | 0.00 | 50 | 1023.7 |
| 20260503130227 | 7 | 330 | 1.6 | 4.8 | 0.00 | 0.00 | 0.00 | 52 | 1023.8 |
| 20260503120153 | 4 | 275 | 0.0 | 3.2 | 0.00 | 0.00 | 0.00 | 75 | 1022.8 |
| 20260503110621 | 0 | 221 | 0.0 | 1.6 | 0.00 | 0.00 | 0.00 | 92 | 1022.3 |
| 20260503110118 | 0 | 253 | 1.6 | 3.2 | 0.00 | 0.00 | 0.00 | 92 | 1022.0 |